Location: Unspecified
(58.9933°N, 5.6375°E)
Time: 01:12:00
(UTC+02:00)

CZ-3 Stage 3 - Visible Passes

Search period start: 29 August 2014 00:00
Search period end: 08 September 2014 00:00
Orbit: 409 x 34840 km, 30.6° (Epoch: 28 August)

Date Brightness Start Highest point End Pass type
(mag) Time Alt. Az. Time Alt. Az. Time Alt. Az.
30 Aug 8.2 07:17:51 10° SSW 08:33:07 19° S 08:48:41 10° SE visible
02 Sep 8.2 07:08:19 10° SSW 08:31:21 20° S 08:46:53 10° SE visible
05 Sep 8.1 06:58:26 10° SSW 08:29:17 21° S 08:44:45 10° SE visible
